#timestamp,LO_Frequency,Hit,StdDev 
1511427615.8,286046999.5,N
1511427635.7,286046998.7,N
1511427655.5,286046998.4,N
1511427675.3,286047001.2,N
1511427695.2,286046998.5,N
1511427715.9,286046998.8,N
1511427735.7,286046998.8,N
1511427755.6,286046995.7,N
1511427775.4,286046995.8,N
1511427795.3,286046996.2,N
1511427815.1,286046997.2,N
1511427816.0,286046997.2,N
1511427835.8,286046998.2,N
1511427855.7,286047002.8,N
1511427875.5,286047002.8,N
1511427895.3,286046998.5,N
1511427915.2,286047001.0,N
1511427935.0,286046999.5,N
1511427935.9,286046999.5,N
1511427955.8,286046999.0,N
1511427975.6,286046998.8,N
1511427995.4,286047000.8,N
1511428015.3,286046998.6,N
1511428035.1,286046998.8,N
1511428055.9,286046996.8,N
1511428075.7,286046999.0,N
1511428095.5,286046998.1,N
1511428115.4,286047000.7,N
1511428135.2,286046999.9,N
1511428155.0,286047000.2,N
1511428156.0,286047000.2,N
1511428175.8,286046999.9,N
1511428195.6,286047000.1,N
1511428215.5,286047000.7,N
1511428235.3,286046998.3,N
1511428255.1,286046996.9,N
1511428275.9,286046998.3,N
1511428295.7,286046997.0,N
1511428315.6,286046996.3,N
1511428335.4,286046995.3,N
1511428355.2,286046996.2,N
1511428375.1,286046994.6,Y
1511428376.0,286046994.6,P
1511428395.8,286046993.3,P
1511428415.7,286046995.1,N
1511428435.5,286046995.7,N
1511428455.3,286046997.5,N
1511428475.2,286046999.5,N
1511428495.0,286046995.1,N
1511428495.9,286046995.1,N
1511428515.7,286046995.2,N
1511428535.6,286046995.0,N
1511428555.4,286046997.0,N
1511428575.3,286046997.0,N
1511428595.1,286046999.4,N
1511428596.0,286046999.4,N
1511428615.8,286046999.5,N
1511428635.7,286047001.0,N
1511428655.5,286047000.4,N
1511428675.3,286047000.5,N
1511428695.2,286046998.9,N
1511428715.0,286046996.9,N
1511428715.9,286046996.9,N
1511428735.8,286046997.7,N
1511428755.6,286046994.1,N
1511428775.4,286046996.1,N
1511428795.3,286046996.1,N
1511428815.1,286046998.0,N
1511428835.9,286046995.9,N
1511428855.7,286046997.2,N
1511428875.5,286046999.6,N
1511428895.4,286046996.9,N
1511428915.2,286046996.6,N
1511428935.0,286046999.5,N
1511428935.9,286046999.5,N
1511428955.8,286046996.9,N
1511428975.6,286046999.3,N
1511428995.5,286046999.0,N
1511429015.3,286046998.9,N
1511429035.1,286046996.6,N
1511429055.9,286046995.1,N
1511429075.7,286046996.2,N
1511429095.6,286046997.8,N
1511429115.4,286046997.1,N
1511429135.2,286046997.1,N
1511429155.1,286046996.5,N
1511429156.0,286046996.5,N
1511429175.8,286046997.9,N
1511429195.6,286046993.3,Y
1511429215.5,286046996.9,P
1511429235.3,286046998.8,P
1511429255.2,286046998.1,N
1511429275.9,286046998.9,N
1511429295.7,286046997.2,Y
1511429315.6,286047000.1,P
1511429335.4,286047002.7,N
1511429355.2,286047002.7,N
1511429375.1,286046998.4,N
1511429376.0,286046998.4,N
1511429395.8,286047000.7,N
1511429415.7,286047001.0,N
1511429435.5,286047001.0,N
1511429455.3,286046998.5,N
1511429475.2,286046996.9,N
1511429495.0,286046993.3,Y
1511429495.9,286046993.3,P
1511429515.8,286046995.2,N
1511429535.6,286046995.9,N
1511429555.4,286046996.4,N
1511429575.3,286046993.6,Y
1511429595.1,286046997.2,P
1511429615.9,286046995.7,P
1511429635.7,286046996.6,P
1511429655.5,286047000.9,N
1511429675.4,286047001.0,N
1511429695.2,286046998.1,N
1511429715.0,286046999.3,N
1511429715.9,286046999.3,N
1511429735.8,286046998.7,N
1511429755.6,286046999.6,N
1511429775.5,286046996.6,N
1511429795.3,286046997.1,N
1511429815.1,286046996.0,N
1511429835.9,286046993.6,Y
1511429855.7,286046995.2,P
1511429875.5,286046997.5,N
1511429895.4,286046996.5,N
1511429915.2,286046997.8,N
1511429935.1,286046995.4,Y
1511429936.0,286046995.4,P
1511429955.8,286046996.5,P
1511429975.6,286047001.1,N
1511429995.5,286047000.5,N
1511430015.3,286046999.8,N
1511430035.1,286046999.9,N
1511430055.9,286047001.2,N
1511430075.7,286046998.1,N
1511430095.6,286046999.0,N
1511430115.4,286046998.7,N
1511430135.2,286046998.4,N
1511430155.1,286046999.1,N
1511430156.0,286046999.1,N
1511430175.8,286046999.4,N
1511430195.6,286046998.7,N
1511430215.5,286046997.4,N
1511430235.3,286046997.3,N
1511430255.2,286046999.1,N
1511430275.9,286046996.5,N
1511430295.7,286046998.4,N
1511430315.6,286046995.4,Y
1511430335.4,286046997.6,P
1511430355.3,286047000.8,N
1511430375.1,286046998.9,N
1511430376.0,286046998.9,N
1511430395.8,286046997.7,N
1511430415.7,286046997.0,N
1511430435.5,286046996.6,N
1511430455.3,286046997.2,N
1511430475.2,286046999.0,N
1511430495.0,286046996.5,N
1511430495.9,286046996.5,N
1511430515.8,286046996.8,N
1511430535.6,286046995.1,Y
1511430555.4,286046997.5,P
1511430575.3,286046997.9,P
1511430595.1,286046997.7,P
1511430615.9,286046997.3,Y
1511430635.7,286046999.8,P
1511430655.5,286047000.7,N
1511430675.4,286046999.6,N
1511430695.2,286046998.9,N
1511430715.0,286046996.5,Y
1511430716.0,286046996.5,P
1511430735.8,286046999.8,N
1511430755.6,286047002.1,N
1511430775.5,286046998.2,N
1511430795.3,286046996.5,N
1511430815.1,286046999.3,N
1511430835.9,286046996.5,N
1511430855.7,286047000.7,N
1511430875.5,286047000.9,N
1511430895.4,286047000.9,N
1511430915.2,286047000.9,N
1511430935.1,286047001.2,N
1511430936.0,286047001.2,N
1511430955.8,286046998.4,N
1511430975.6,286046998.5,N
1511430995.5,286046997.4,N
1511431015.3,286046996.5,N
1511431035.2,286047000.9,N
1511431055.9,286047001.9,N
1511431075.7,286047002.4,N
1511431095.6,286047002.7,N
1511431115.4,286046998.7,N
1511431135.2,286046999.3,N
1511431155.1,286046999.9,N
1511431156.0,286046999.9,N
1511431175.8,286046998.8,N
1511431195.7,286046999.5,N
